User: anonymous   Login
Location: Brno
(49.2000°N, 16.6330°E)
Time: 23:33:21
(UTC+01:00)
Language:

Iridium 2 - Orbit

View from above orbital plane
View from above orbital plane
View from above satellite
View from above satellite

Ground track
Ground track

The orbit data is extracted from the following two-line orbital elements,

1 25527U 98066A   17347.43923898  .00001392  00000-0  68384-4 0  9996
2 25527  85.5303 286.3892 0010269 139.2106 220.9905 15.17063453 45040
Epoch (UTC): 13 December 2017 10:32:30
Eccentricity: 0.0010269
inclination: 85.5303°
perigee height: 507 km
apogee height: 522 km
right ascension of ascending node: 286.3892°
argument of perigee: 139.2106°
revolutions per day: 15.17063453
mean anomaly at epoch: 220.9905°
orbit number at epoch: 4504

The dashed part of the orbit path shows where the satellite is in the earth's shadow,  

DLR